| time (UTC) | temp C | wind direction | speed KPH | gust KPH | rain 1hr cm | rain 24hr cm | rain mn cm | humidity % | barometer mb |
| 20260902235440 | 21 | 202 | 11.3 | 14.5 | 0.00 | 0.03 | 0.00 | 69 | 1021.8 |
| 20260902234457 | 21 | 202 | 11.3 | 16.1 | 0.00 | 0.03 | 0.00 | 68 | 1021.8 |
| 20260902233435 | 21 | 201 | 11.3 | 16.1 | 0.00 | 0.03 | 0.00 | 68 | 1022.0 |
| 20260902232433 | 22 | 203 | 11.3 | 14.5 | 0.00 | 0.03 | 0.00 | 67 | 1022.1 |
| 20260902231431 | 22 | 202 | 11.3 | 17.7 | 0.00 | 0.03 | 0.00 | 66 | 1022.2 |
| 20260902230448 | 22 | 205 | 11.3 | 16.1 | 0.00 | 0.03 | 0.00 | 66 | 1022.1 |
| 20260902225427 | 22 | 202 | 11.3 | 17.7 | 0.00 | 0.03 | 0.00 | 65 | 1021.9 |
| 20260902223422 | 22 | 204 | 11.3 | 14.5 | 0.00 | 0.03 | 0.00 | 64 | 1022.0 |
| 20260902222441 | 22 | 201 | 11.3 | 17.7 | 0.00 | 0.03 | 0.00 | 64 | 1022.2 |
| 20260902221419 | 22 | 204 | 11.3 | 14.5 | 0.00 | 0.03 | 0.00 | 64 | 1022.2 |
| 20260902220417 | 22 | 201 | 11.3 | 14.5 | 0.00 | 0.03 | 0.00 | 64 | 1022.1 |
| 20260902215415 | 22 | 204 | 11.3 | 16.1 | 0.00 | 0.03 | 0.00 | 64 | 1022.0 |
| 20260902214413 | 22 | 202 | 11.3 | 16.1 | 0.00 | 0.03 | 0.00 | 64 | 1021.9 |
| 20260902213410 | 23 | 202 | 9.7 | 14.5 | 0.00 | 0.03 | 0.00 | 63 | 1022.0 |
| 20260902212410 | 23 | 202 | 11.3 | 14.5 | 0.00 | 0.03 | 0.00 | 62 | 1022.1 |
| 20260902211406 | 23 | 200 | 11.3 | 14.5 | 0.00 | 0.03 | 0.00 | 63 | 1022.1 |
| 20260902210405 | 23 | 200 | 11.3 | 14.5 | 0.00 | 0.03 | 0.00 | 62 | 1022.0 |
| 20260902205405 | 23 | 202 | 11.3 | 17.7 | 0.00 | 0.03 | 0.03 | 63 | 1022.0 |
| 20260902204403 | 23 | 201 | 11.3 | 14.5 | 0.00 | 0.03 | 0.03 | 63 | 1022.0 |
| 20260902203401 | 23 | 199 | 9.7 | 14.5 | 0.00 | 0.03 | 0.03 | 63 | 1022.0 |
| 20260902202358 | 23 | 199 | 11.3 | 14.5 | 0.00 | 0.03 | 0.03 | 63 | 1021.9 |
| 20260902201357 | 23 | 201 | 11.3 | 14.5 | 0.00 | 0.03 | 0.03 | 62 | 1021.9 |
| 20260902200354 | 23 | 199 | 11.3 | 14.5 | 0.00 | 0.03 | 0.03 | 62 | 1021.9 |
| 20260902195352 | 23 | 200 | 11.3 | 14.5 | 0.00 | 0.03 | 0.03 | 62 | 1022.0 |
| 20260902194350 | 23 | 197 | 11.3 | 14.5 | 0.00 | 0.03 | 0.03 | 61 | 1022.0 |
| 20260902193347 | 23 | 198 | 11.3 | 14.5 | 0.00 | 0.03 | 0.03 | 61 | 1022.1 |
| 20260902192405 | 23 | 200 | 9.7 | 14.5 | 0.00 | 0.03 | 0.03 | 60 | 1022.0 |
| 20260902191343 | 24 | 199 | 11.3 | 14.5 | 0.00 | 0.03 | 0.03 | 60 | 1022.0 |
| 20260902190341 | 24 | 198 | 11.3 | 14.5 | 0.00 | 0.03 | 0.03 | 59 | 1022.0 |
| 20260902185339 | 24 | 201 | 11.3 | 14.5 | 0.00 | 0.03 | 0.03 | 59 | 1022.0 |
| 20260902184356 | 25 | 200 | 11.3 | 14.5 | 0.00 | 0.03 | 0.03 | 58 | 1022.0 |
| 20260902183335 | 25 | 200 | 9.7 | 14.5 | 0.00 | 0.03 | 0.03 | 58 | 1022.0 |
| 20260902182332 | 25 | 197 | 11.3 | 14.5 | 0.00 | 0.03 | 0.03 | 57 | 1021.9 |
| 20260902181351 | 26 | 195 | 11.3 | 16.1 | 0.00 | 0.03 | 0.03 | 57 | 1021.8 |
| 20260902180340 | 26 | 195 | 9.7 | 14.5 | 0.00 | 0.03 | 0.03 | 56 | 1021.8 |
| 20260902175328 | 27 | 195 | 11.3 | 20.9 | 0.00 | 0.03 | 0.03 | 55 | 1021.6 |
| 20260902174327 | 27 | 197 | 11.3 | 14.5 | 0.00 | 0.03 | 0.03 | 53 | 1021.5 |
| 20260902173323 | 27 | 198 | 11.3 | 16.1 | 0.00 | 0.03 | 0.03 | 51 | 1021.2 |
| 20260902172321 | 27 | 194 | 9.7 | 14.5 | 0.00 | 0.03 | 0.03 | 51 | 1021.1 |
| 20260902171318 | 28 | 196 | 9.7 | 14.5 | 0.00 | 0.03 | 0.03 | 50 | 1020.9 |
| 20260902170337 | 28 | 197 | 9.7 | 14.5 | 0.00 | 0.03 | 0.03 | 50 | 1020.8 |
| 20260902165315 | 28 | 195 | 9.7 | 14.5 | 0.00 | 0.03 | 0.03 | 49 | 1020.7 |
| 20260902164313 | 28 | 195 | 9.7 | 17.7 | 0.00 | 0.03 | 0.03 | 48 | 1020.6 |
| 20260902163311 | 29 | 197 | 11.3 | 14.5 | 0.00 | 0.03 | 0.03 | 48 | 1020.6 |
| 20260902162309 | 29 | 194 | 11.3 | 16.1 | 0.00 | 0.03 | 0.03 | 47 | 1020.5 |
| 20260902161308 | 29 | 194 | 11.3 | 14.5 | 0.00 | 0.03 | 0.03 | 46 | 1020.6 |
| 20260902160305 | 30 | 192 | 11.3 | 14.5 | 0.00 | 0.03 | 0.03 | 46 | 1020.6 |
| 20260902155306 | 30 | 192 | 11.3 | 17.7 | 0.00 | 0.03 | 0.03 | 46 | 1020.6 |
| 20260902154303 | 30 | 193 | 9.7 | 14.5 | 0.00 | 0.03 | 0.03 | 45 | 1020.6 |
| 20260902153300 | 30 | 192 | 11.3 | 14.5 | 0.00 | 0.03 | 0.03 | 46 | 1020.7 |
| 20260902152257 | 30 | 191 | 11.3 | 14.5 | 0.00 | 0.03 | 0.03 | 45 | 1020.8 |
| 20260902151255 | 30 | 189 | 11.3 | 16.1 | 0.00 | 0.03 | 0.03 | 45 | 1020.8 |
| 20260902150253 | 30 | 190 | 11.3 | 14.5 | 0.00 | 0.03 | 0.03 | 45 | 1020.8 |
| 20260902145251 | 30 | 188 | 11.3 | 17.7 | 0.00 | 0.03 | 0.03 | 44 | 1020.8 |
| 20260902144250 | 31 | 185 | 11.3 | 16.1 | 0.00 | 0.03 | 0.03 | 44 | 1020.9 |
| 20260902143247 | 31 | 192 | 11.3 | 14.5 | 0.00 | 0.03 | 0.03 | 44 | 1020.9 |
| 20260902142245 | 31 | 188 | 11.3 | 17.7 | 0.00 | 0.03 | 0.03 | 44 | 1020.9 |
| 20260902141243 | 31 | 188 | 11.3 | 14.5 | 0.00 | 0.03 | 0.03 | 44 | 1021.1 |
| 20260902140240 | 31 | 189 | 11.3 | 16.1 | 0.00 | 0.03 | 0.03 | 44 | 1021.2 |
| 20260902135239 | 31 | 190 | 11.3 | 16.1 | 0.00 | 0.03 | 0.03 | 44 | 1021.2 |
| 20260902134319 | 31 | 189 | 11.3 | 14.5 | 0.00 | 0.03 | 0.03 | 44 | 1021.3 |
| 20260902133257 | 31 | 186 | 11.3 | 16.1 | 0.00 | 0.03 | 0.03 | 43 | 1021.3 |
| 20260902132233 | 32 | 188 | 11.3 | 17.7 | 0.00 | 0.03 | 0.03 | 42 | 1021.5 |
| 20260902131231 | 32 | 185 | 11.3 | 16.1 | 0.00 | 0.03 | 0.03 | 43 | 1021.5 |
| 20260902130229 | 32 | 185 | 11.3 | 17.7 | 0.00 | 0.03 | 0.03 | 42 | 1021.6 |
| 20260902125227 | 33 | 184 | 11.3 | 17.7 | 0.00 | 0.03 | 0.03 | 41 | 1021.7 |
| 20260902124236 | 33 | 183 | 11.3 | 16.1 | 0.00 | 0.03 | 0.03 | 40 | 1021.9 |
| 20260902123234 | 34 | 185 | 11.3 | 17.7 | 0.00 | 0.03 | 0.03 | 39 | 1022.0 |
| 20260902122221 | 35 | 185 | 11.3 | 17.7 | 0.00 | 0.03 | 0.03 | 38 | 1022.2 |
| 20260902121218 | 35 | 184 | 11.3 | 16.1 | 0.00 | 0.03 | 0.03 | 40 | 1022.2 |
| 20260902120217 | 34 | 189 | 11.3 | 17.7 | 0.00 | 0.03 | 0.03 | 40 | 1022.4 |
| 20260902115258 | 34 | 186 | 11.3 | 16.1 | 0.00 | 0.03 | 0.03 | 41 | 1022.5 |
| 20260902114213 | 33 | 187 | 11.3 | 14.5 | 0.00 | 0.03 | 0.03 | 41 | 1022.7 |
| 20260902113211 | 33 | 191 | 9.7 | 19.3 | 0.00 | 0.03 | 0.03 | 42 | 1022.8 |
| 20260902112209 | 33 | 193 | 9.7 | 17.7 | 0.00 | 0.03 | 0.03 | 41 | 1023.0 |
| 20260902111207 | 32 | 190 | 9.7 | 16.1 | 0.00 | 0.03 | 0.03 | 42 | 1023.1 |
| 20260902110228 | 32 | 194 | 9.7 | 14.5 | 0.00 | 0.03 | 0.03 | 44 | 1023.1 |
| 20260902105203 | 32 | 194 | 9.7 | 14.5 | 0.00 | 0.03 | 0.03 | 45 | 1023.1 |
| 20260902104201 | 32 | 191 | 9.7 | 16.1 | 0.00 | 0.03 | 0.03 | 44 | 1023.2 |
| 20260902103159 | 31 | 191 | 9.7 | 17.7 | 0.00 | 0.03 | 0.03 | 46 | 1023.3 |
| 20260902102156 | 31 | 191 | 9.7 | 17.7 | 0.00 | 0.03 | 0.03 | 47 | 1023.4 |
| 20260902101155 | 31 | 191 | 9.7 | 17.7 | 0.00 | 0.03 | 0.03 | 46 | 1023.5 |
| 20260902100216 | 32 | 192 | 9.7 | 14.5 | 0.00 | 0.03 | 0.03 | 46 | 1023.6 |
| 20260902095151 | 31 | 189 | 9.7 | 16.1 | 0.00 | 0.03 | 0.03 | 45 | 1023.6 |
| 20260902094210 | 32 | 190 | 9.7 | 16.1 | 0.00 | 0.03 | 0.03 | 44 | 1023.6 |
| 20260902093147 | 32 | 190 | 9.7 | 14.5 | 0.00 | 0.03 | 0.03 | 45 | 1023.7 |
| 20260902092144 | 32 | 187 | 11.3 | 14.5 | 0.00 | 0.03 | 0.03 | 47 | 1023.8 |
| 20260902091143 | 31 | 191 | 9.7 | 14.5 | 0.00 | 0.03 | 0.03 | 46 | 1023.9 |
| 20260902090142 | 31 | 184 | 11.3 | 14.5 | 0.00 | 0.03 | 0.03 | 49 | 1023.9 |
| 20260902085139 | 30 | 184 | 11.3 | 16.1 | 0.00 | 0.03 | 0.03 | 50 | 1023.9 |
| 20260902084136 | 30 | 188 | 11.3 | 14.5 | 0.00 | 0.03 | 0.03 | 51 | 1023.9 |
| 20260902083135 | 29 | 189 | 11.3 | 16.1 | 0.00 | 0.03 | 0.03 | 52 | 1024.0 |
| 20260902082133 | 28 | 187 | 11.3 | 16.1 | 0.00 | 0.03 | 0.03 | 54 | 1024.1 |
| 20260902081131 | 28 | 192 | 9.7 | 14.5 | 0.00 | 0.03 | 0.03 | 54 | 1024.1 |
| 20260902080130 | 28 | 190 | 11.3 | 14.5 | 0.00 | 0.03 | 0.03 | 53 | 1024.0 |
| 20260902075126 | 28 | 195 | 9.7 | 14.5 | 0.00 | 0.03 | 0.03 | 56 | 1024.0 |
| 20260902074128 | 27 | 196 | 9.7 | 14.5 | 0.00 | 0.03 | 0.03 | 59 | 1023.9 |
| 20260902073123 | 26 | 201 | 9.7 | 17.7 | 0.00 | 0.03 | 0.03 | 61 | 1023.8 |
| 20260902072123 | 26 | 202 | 9.7 | 14.5 | 0.00 | 0.03 | 0.03 | 63 | 1023.9 |
| 20260902071118 | 25 | 199 | 9.7 | 16.1 | 0.00 | 0.03 | 0.03 | 63 | 1023.8 |
| 20260902070117 | 26 | 200 | 9.7 | 19.3 | 0.00 | 0.03 | 0.03 | 61 | 1023.8 |
| 20260902065115 | 26 | 200 | 9.7 | 14.5 | 0.00 | 0.03 | 0.03 | 66 | 1023.8 |
| 20260902064112 | 25 | 199 | 9.7 | 14.5 | 0.00 | 0.03 | 0.03 | 69 | 1023.8 |
| 20260902063131 | 24 | 199 | 9.7 | 14.5 | 0.00 | 0.03 | 0.03 | 71 | 1023.7 |
| 20260902062109 | 23 | 197 | 11.3 | 16.1 | 0.00 | 0.03 | 0.03 | 75 | 1023.7 |
| 20260902061107 | 22 | 198 | 11.3 | 14.5 | 0.00 | 0.03 | 0.03 | 78 | 1023.6 |
| 20260902060127 | 22 | 195 | 9.7 | 16.1 | 0.00 | 0.03 | 0.03 | 80 | 1023.6 |
| 20260902055105 | 22 | 199 | 11.3 | 17.7 | 0.00 | 0.03 | 0.03 | 88 | 1023.8 |
| 20260902054101 | 21 | 203 | 11.3 | 16.1 | 0.03 | 0.03 | 0.03 | 88 | 1023.9 |
| 20260902053059 | 20 | 207 | 11.3 | 16.1 | 0.03 | 0.03 | 0.03 | 88 | 1024.0 |
| 20260902052057 | 20 | 207 | 11.3 | 14.5 | 0.03 | 0.03 | 0.03 | 88 | 1023.8 |
| 20260902051054 | 20 | 207 | 11.3 | 14.5 | 0.03 | 0.03 | 0.03 | 88 | 1023.8 |
| 20260902050055 | 20 | 209 | 9.7 | 14.5 | 0.03 | 0.03 | 0.03 | 88 | 1023.5 |
| 20260902045113 | 20 | 209 | 11.3 | 14.5 | 0.03 | 0.03 | 0.03 | 88 | 1023.6 |
| 20260902044050 | 20 | 206 | 11.3 | 16.1 | 0.00 | 0.00 | 0.00 | 87 | 1023.4 |
| 20260902043049 | 20 | 207 | 11.3 | 16.1 | 0.00 | 0.00 | 0.00 | 80 | 1023.4 |
| 20260902042045 | 21 | 205 | 11.3 | 17.7 | 0.00 | 0.00 | 0.00 | 73 | 1023.5 |
| 20260902041043 | 21 | 204 | 11.3 | 16.1 | 0.00 | 0.00 | 0.00 | 72 | 1023.5 |
| 20260902040043 | 21 | 201 | 9.7 | 14.5 | 0.00 | 0.00 | 0.00 | 72 | 1023.5 |
| 20260902035040 | 21 | 206 | 9.7 | 14.5 | 0.00 | 0.00 | 0.00 | 73 | 1023.4 |
| 20260902034037 | 21 | 203 | 11.3 | 14.5 | 0.00 | 0.00 | 0.00 | 73 | 1023.1 |
| 20260902032032 | 21 | 204 | 11.3 | 14.5 | 0.00 | 0.00 | 0.00 | 71 | 1022.9 |
| 20260902031031 | 21 | 203 | 11.3 | 17.7 | 0.00 | 0.00 | 0.00 | 70 | 1023.1 |
| 20260902030030 | 22 | 201 | 11.3 | 16.1 | 0.00 | 0.00 | 0.00 | 68 | 1023.3 |
| 20260902025029 | 22 | 201 | 11.3 | 16.1 | 0.00 | 0.00 | 0.00 | 69 | 1023.1 |
| 20260902024025 | 21 | 202 | 11.3 | 16.1 | 0.00 | 0.00 | 0.00 | 69 | 1022.9 |
| 20260902023023 | 22 | 200 | 11.3 | 16.1 | 0.00 | 0.00 | 0.00 | 68 | 1022.8 |
| 20260902022042 | 22 | 202 | 12.9 | 24.1 | 0.00 | 0.00 | 0.00 | 68 | 1022.7 |
| 20260902021019 | 22 | 203 | 12.9 | 22.5 | 0.00 | 0.00 | 0.00 | 68 | 1022.7 |
| 20260902020050 | 21 | 203 | 12.9 | 17.7 | 0.00 | 0.00 | 0.00 | 68 | 1022.5 |
| 20260902015036 | 21 | 205 | 11.3 | 16.1 | 0.00 | 0.00 | 0.00 | 68 | 1022.6 |
| 20260902014015 | 22 | 201 | 11.3 | 16.1 | 0.00 | 0.00 | 0.00 | 68 | 1022.6 |
| 20260902013022 | 22 | 201 | 11.3 | 16.1 | 0.00 | 0.00 | 0.00 | 67 | 1022.6 |
| 20260902012010 | 22 | 200 | 11.3 | 14.5 | 0.00 | 0.00 | 0.00 | 67 | 1022.6 |
| 20260902011008 | 22 | 201 | 11.3 | 16.1 | 0.00 | 0.00 | 0.00 | 67 | 1022.7 |
| 20260902010008 | 22 | 201 | 11.3 | 14.5 | 0.00 | 0.00 | 0.00 | 67 | 1022.7 |
| 20260902005015 | 22 | 201 | 11.3 | 16.1 | 0.00 | 0.00 | 0.00 | 66 | 1022.7 |
| 20260902004001 | 22 | 201 | 11.3 | 17.7 | 0.00 | 0.00 | 0.00 | 66 | 1022.6 |
| 20260902002959 | 22 | 201 | 11.3 | 16.1 | 0.00 | 0.00 | 0.00 | 66 | 1022.5 |
| 20260902002018 | 22 | 201 | 11.3 | 16.1 | 0.00 | 0.00 | 0.00 | 65 | 1022.5 |
| 20260902000955 | 22 | 200 | 11.3 | 14.5 | 0.00 | 0.00 | 0.00 | 65 | 1022.5 |
| 20260901235952 | 22 | 203 | 11.3 | 17.7 | 0.00 | 0.00 | 0.00 | 64 | 1022.5 |